Weather Roundup
Issued by NWS Corpus Christi, TX

Home | Current Version | Previous Version | Text Only | Print | Product List | Glossary On
Versions: 1 2 3 4 5 6 7 8 9 10 11 12 13 14 15 16 17 18 19 20 21 22 23 24 25 26 27 28 29 30 31 32 33 34 35 36 37 38 39 40 41 42 43 44 45 46 47 48 49 50
000
ASUS44 KCRP 011010
HRRCRP

SOUTH TEXAS REGIONAL WEATHER ROUNDUP
NATIONAL WEATHER SERVICE CORPUS CHRISTI TX
500 AM CDT SAT AUG 01 2015


TXZ229>244-011100-
...CORPUS CHRISTI AREA OBSERVATIONS...

CITY           SKY/WX    TMP DP  RH WIND       PRES   REMARKS
CORPUS CHRISTI CLOUDY    76  73  91 CALM      29.93F
NAS CORPUS CHR CLEAR     79  74  84 NE5       29.92F
ROCKPORT       CLEAR     76  72  87 CALM      29.92F
KINGSVILLE NAS MOCLDY    74  74 100 NE3       29.93F
ALICE          PTCLDY    74  73  97 NE3       29.93S FOG
FALFURRIAS     CLEAR     73  70  91 CALM      29.93S
$$

...VICTORIA AREA OBSERVATIONS...

CITY           SKY/WX    TMP DP  RH WIND       PRES   REMARKS
VICTORIA       CLEAR     73  73 100 NW3       29.94F
BEEVILLE       FAIR      69  69 100 CALM      29.94F
PLEASANTON     MOCLDY    75  71  86 NW3       29.96S
SAN ANTONIO    PTCLDY    77  72  84 NW6       29.98S
$$

...LAREDO AREA OBSERVATIONS...

CITY           SKY/WX    TMP DP  RH WIND       PRES   REMARKS
LAREDO         CLEAR     77  73  87 CALM      29.97S
COTULLA        PTCLDY    76  72  87 CALM      29.96S
DEL RIO        CLEAR     78  69  73 E5        29.98F
MCALLEN        CLEAR     80  72  76 CALM      29.92F
HEBBRONVILLE     N/A     75  72  91 CALM      29.96S
$$

...OTHER TEXAS OBSERVATIONS...

CITY           SKY/WX    TMP DP  RH WIND       PRES   REMARKS
BROWNSVILLE    CLEAR     76  75  97 CALM      29.92F
HOUSTON        PTCLDY    75  66  73 NE7       29.95S
COL. STATION   CLEAR     76  62  62 NE6       29.98S
AUSTIN         CLEAR     70  65  84 N3        29.98S
WACO           PTCLDY    75  64  68 CALM      30.01S
FORT WORTH     MOCLDY    80  60  50 CALM      30.02S
WICHITA FALLS  CLOUDY    74  71  91 N6        30.05F
LUBBOCK        CLOUDY    71  65  81 E7        30.14F
EL PASO        MOCLDY    79  57  46 N8        30.12S
$$

...MARINE OBSERVATIONS...

STATION/POSITION TIME  SKY/WX   TEMP    WIND        PRES    VSBY  WAVE   SWELL
                                AIR SEA DIR/SP/G                  HT/PER HT/PER
                 (UTC)          (F)     (DEG/KT/KT) (MB)    (MI)  (FT/S) (FT/S)
PORT ARANSAS     1000            81 82   30/  5/  6 1013.8F
BUOY 90 E PORT A 0950            84 86  330/ 12/ 14 1012.6S         1/ 3
BUOY 45 SE BAFFI 0950            82 86  250/  8/ 10 1012.9F         1/ 5
BUOY 200 E PT IS 0950            83 85  270/  8/ 10 1012.5F         2/ 5   2/ 5
BUOY 15 E GALVES 0950            85 86   20/ 12/ 14 1012.2F         2/ 4
$$


USA.gov is the U.S. government's official web portal to all federal, state and local government web resources and services.